JST766 YSSY-YPAD

Flight info

Callsign JST766
Flight time 1h 34m
Altitude 36000
Route TESAT A576 KADOM H44 MAXEM Q60 KAKLU H309 AD
Aircraft A320/M-SDE3FGHIRWY/LB1

Departure

Time 2026-04-26 07:45
Airport Sydney Kingsford Smith International Airport (YSSY)

Arrival

Time 2026-04-26 09:19
Airport Adelaide International Airport (YPAD)
Time Latitude Longitude Altitude Speed Heading
2026-04-26 06:57 -33.93558 151.17673 30 ft 0 kts 98°
2026-04-26 07:23 -33.93558 151.17672 30 ft 2 kts 98°
2026-04-26 07:23 -33.93555 151.17651 30 ft 3 kts 98°
2026-04-26 07:24 -33.93553 151.17631 30 ft 2 kts 123°
2026-04-26 07:24 -33.93541 151.17615 29 ft 3 kts 143°
2026-04-26 07:24 -33.93530 151.17608 29 ft 0 kts 192°
2026-04-26 07:29 -33.93531 151.17608 29 ft 2 kts 192°
2026-04-26 07:30 -33.93566 151.17606 28 ft 8 kts 172°
2026-04-26 07:30 -33.93624 151.17625 28 ft 9 kts 163°
2026-04-26 07:30 -33.93685 151.17664 27 ft 7 kts 144°
2026-04-26 07:30 -33.93730 151.17724 28 ft 12 kts 123°
2026-04-26 07:31 -33.93810 151.17781 22 ft 17 kts 178°
2026-04-26 07:31 -33.93913 151.17786 21 ft 15 kts 169°
2026-04-26 07:31 -33.93952 151.17796 22 ft 4 kts 168°
2026-04-26 07:31 -33.93988 151.17805 23 ft 7 kts 168°
2026-04-26 07:32 -33.94056 151.17822 25 ft 12 kts 169°
2026-04-26 07:32 -33.94142 151.17842 24 ft 13 kts 168°
2026-04-26 07:32 -33.94234 151.17866 25 ft 15 kts 168°
2026-04-26 07:32 -33.94342 151.17893 25 ft 17 kts 168°
2026-04-26 07:33 -33.94461 151.17904 24 ft 16 kts 201°
2026-04-26 07:33 -33.94575 151.17895 25 ft 9 kts 161°
2026-04-26 07:33 -33.94638 151.17916 23 ft 12 kts 168°
2026-04-26 07:33 -33.94728 151.17938 24 ft 15 kts 169°
2026-04-26 07:34 -33.94842 151.17966 22 ft 18 kts 168°
2026-04-26 07:34 -33.94970 151.18000 24 ft 19 kts 167°
2026-04-26 07:34 -33.95092 151.18032 26 ft 19 kts 167°
2026-04-26 07:34 -33.95184 151.18027 30 ft 14 kts 230°
2026-04-26 07:35 -33.95213 151.17910 24 ft 12 kts 257°
2026-04-26 07:35 -33.95216 151.17897 24 ft 0 kts 257°
2026-04-26 07:39 -33.95216 151.17893 24 ft 2 kts 257°
2026-04-26 07:40 -33.95222 151.17864 25 ft 5 kts 257°
2026-04-26 07:40 -33.95232 151.17810 23 ft 9 kts 257°
2026-04-26 07:40 -33.95249 151.17720 22 ft 13 kts 257°
2026-04-26 07:40 -33.95288 151.17607 19 ft 17 kts 219°
2026-04-26 07:41 -33.95410 151.17603 20 ft 19 kts 170°
2026-04-26 07:41 -33.95545 151.17632 21 ft 20 kts 169°
2026-04-26 07:41 -33.95686 151.17669 25 ft 21 kts 167°
2026-04-26 07:41 -33.95835 151.17710 23 ft 24 kts 167°
2026-04-26 07:42 -33.96008 151.17761 24 ft 26 kts 166°
2026-04-26 07:42 -33.96195 151.17812 23 ft 29 kts 170°
2026-04-26 07:42 -33.96364 151.17849 23 ft 14 kts 169°
2026-04-26 07:42 -33.96440 151.17909 24 ft 7 kts 108°
2026-04-26 07:43 -33.96441 151.17922 24 ft 0 kts 93°
2026-04-26 07:43 -33.96441 151.17925 24 ft 2 kts 92°
2026-04-26 07:44 -33.96438 151.17962 24 ft 8 kts 82°
2026-04-26 07:44 -33.96420 151.18040 24 ft 11 kts 55°
2026-04-26 07:44 -33.96343 151.18041 24 ft 14 kts 346°
2026-04-26 07:44 -33.96069 151.17970 19 ft 78 kts 349°
2026-04-26 07:45 -33.95318 151.17780 24 ft 139 kts 348°
2026-04-26 07:45 -33.94224 151.17540 274 ft 168 kts 351°
2026-04-26 07:45 -33.93097 151.17204 1002 ft 170 kts 346°
2026-04-26 07:45 -33.92003 151.16652 1824 ft 173 kts 333°
2026-04-26 07:46 -33.90982 151.15730 2311 ft 197 kts 318°
2026-04-26 07:46 -33.90132 151.14320 2708 ft 221 kts 301°
2026-04-26 07:46 -33.89422 151.12584 3110 ft 247 kts 298°
2026-04-26 07:46 -33.88646 151.10681 3879 ft 257 kts 298°
2026-04-26 07:47 -33.87850 151.08732 4857 ft 262 kts 296°
2026-04-26 07:47 -33.87035 151.06739 5739 ft 269 kts 296°
2026-04-26 07:47 -33.86202 151.04702 6647 ft 274 kts 296°
2026-04-26 07:47 -33.85353 151.02625 7504 ft 279 kts 296°
2026-04-26 07:48 -33.84575 151.00473 8356 ft 284 kts 286°
2026-04-26 07:48 -33.84076 150.98156 9216 ft 288 kts 283°
2026-04-26 07:48 -33.83634 150.95783 10078 ft 293 kts 282°
2026-04-26 07:48 -33.83203 150.93347 10486 ft 314 kts 282°
2026-04-26 07:49 -33.82730 150.90686 10799 ft 335 kts 282°
2026-04-26 07:49 -33.82226 150.87913 11442 ft 342 kts 283°
2026-04-26 07:49 -33.81700 150.85102 12199 ft 347 kts 283°
2026-04-26 07:50 -33.80605 150.79369 13704 ft 357 kts 283°
2026-04-26 07:50 -33.80043 150.76440 14416 ft 361 kts 283°
2026-04-26 07:50 -33.79477 150.73481 15106 ft 365 kts 283°
2026-04-26 07:50 -33.78906 150.70489 15790 ft 369 kts 283°
2026-04-26 07:51 -33.78338 150.67517 16520 ft 371 kts 283°
2026-04-26 07:51 -33.77757 150.64481 17202 ft 375 kts 283°
2026-04-26 07:51 -33.77168 150.61415 17871 ft 379 kts 284°
2026-04-26 07:51 -33.76573 150.58314 18554 ft 382 kts 283°
2026-04-26 07:52 -33.75972 150.55193 19174 ft 386 kts 283°
2026-04-26 07:52 -33.75365 150.52037 19801 ft 390 kts 283°
2026-04-26 07:52 -33.74750 150.48851 20457 ft 393 kts 283°
2026-04-26 07:52 -33.74126 150.45637 21121 ft 397 kts 283°
2026-04-26 07:53 -33.73494 150.42393 21759 ft 401 kts 283°
2026-04-26 07:53 -33.72877 150.39221 22358 ft 405 kts 284°
2026-04-26 07:53 -33.72232 150.35907 22686 ft 409 kts 284°
2026-04-26 07:53 -33.71599 150.32603 23548 ft 414 kts 281°
2026-04-26 07:54 -33.71284 150.29162 24104 ft 418 kts 271°
2026-04-26 07:54 -33.71447 150.25668 24604 ft 422 kts 264°
2026-04-26 07:54 -33.71763 150.22155 25137 ft 424 kts 264°
2026-04-26 07:54 -33.72078 150.18624 25682 ft 426 kts 264°
2026-04-26 07:55 -33.72388 150.15074 26209 ft 429 kts 264°
2026-04-26 07:55 -33.72697 150.11503 26727 ft 431 kts 264°
2026-04-26 07:55 -33.73005 150.07915 27256 ft 433 kts 264°
2026-04-26 07:55 -33.73314 150.04311 27764 ft 435 kts 264°
2026-04-26 07:56 -33.73620 150.00735 28244 ft 437 kts 264°
2026-04-26 07:56 -33.73933 149.97099 28732 ft 439 kts 264°
2026-04-26 07:56 -33.74247 149.93437 29211 ft 442 kts 264°
2026-04-26 07:56 -33.74561 149.89756 29676 ft 444 kts 263°
2026-04-26 07:57 -33.74874 149.86057 30134 ft 446 kts 264°
2026-04-26 07:57 -33.75187 149.82338 30511 ft 449 kts 264°
2026-04-26 07:57 -33.75503 149.78599 30860 ft 451 kts 264°
2026-04-26 07:57 -33.75818 149.74850 31216 ft 452 kts 263°
2026-04-26 07:58 -33.76135 149.71091 31655 ft 451 kts 263°
2026-04-26 07:58 -33.76445 149.67347 32109 ft 450 kts 264°
2026-04-26 07:58 -33.76746 149.63655 32232 ft 449 kts 264°
2026-04-26 07:58 -33.77048 149.59929 32259 ft 449 kts 263°
2026-04-26 07:59 -33.77662 149.52483 32255 ft 447 kts 263°
2026-04-26 07:59 -33.78279 149.45047 32253 ft 447 kts 263°
2026-04-26 08:00 -33.78882 149.37608 32255 ft 447 kts 263°
2026-04-26 08:00 -33.79475 149.30220 32250 ft 447 kts 263°
2026-04-26 08:01 -33.80071 149.22780 32244 ft 447 kts 263°
2026-04-26 08:01 -33.80656 149.15347 32244 ft 447 kts 264°
2026-04-26 08:02 -33.81236 149.07901 32244 ft 447 kts 264°
2026-04-26 08:02 -33.81808 149.00502 32238 ft 447 kts 264°
2026-04-26 08:03 -33.82380 148.93049 32242 ft 448 kts 263°
2026-04-26 08:03 -33.82960 148.85605 32236 ft 447 kts 263°
2026-04-26 08:04 -33.83533 148.78153 32234 ft 447 kts 264°
2026-04-26 08:04 -33.84090 148.70743 32234 ft 448 kts 264°
2026-04-26 08:05 -33.84824 148.63298 32229 ft 448 kts 258°
2026-04-26 08:05 -33.86060 148.55946 32225 ft 448 kts 258°
2026-04-26 08:06 -33.87287 148.48599 32231 ft 448 kts 258°
2026-04-26 08:06 -33.88507 148.41238 32225 ft 449 kts 258°
2026-04-26 08:07 -33.89712 148.33914 32228 ft 449 kts 258°
2026-04-26 08:07 -33.90917 148.26545 32228 ft 449 kts 258°
2026-04-26 08:08 -33.92125 148.19167 32223 ft 449 kts 259°
2026-04-26 08:08 -33.93338 148.11775 32223 ft 450 kts 259°
2026-04-26 08:09 -33.94536 148.04424 32223 ft 450 kts 259°
2026-04-26 08:09 -33.95732 147.97019 32220 ft 450 kts 259°
2026-04-26 08:10 -33.96924 147.89619 32220 ft 449 kts 259°
2026-04-26 08:10 -33.98112 147.82237 32220 ft 449 kts 259°
2026-04-26 08:11 -33.99294 147.74853 32217 ft 449 kts 259°
2026-04-26 08:11 -34.00458 147.67522 32217 ft 449 kts 259°
2026-04-26 08:12 -34.01629 147.60137 32217 ft 448 kts 259°
2026-04-26 08:12 -34.02803 147.52756 32216 ft 448 kts 259°
2026-04-26 08:13 -34.03970 147.45372 32217 ft 448 kts 259°
2026-04-26 08:13 -34.05117 147.38041 32221 ft 448 kts 259°
2026-04-26 08:14 -34.06277 147.30615 32218 ft 452 kts 259°
2026-04-26 08:14 -34.07435 147.23162 32217 ft 452 kts 259°
2026-04-26 08:15 -34.08590 147.15704 32217 ft 452 kts 259°
2026-04-26 08:15 -34.09741 147.08236 32218 ft 454 kts 260°
2026-04-26 08:16 -34.10884 147.00779 32215 ft 456 kts 260°
2026-04-26 08:16 -34.12037 146.93251 32210 ft 456 kts 260°
2026-04-26 08:17 -34.13183 146.85719 32212 ft 456 kts 260°
2026-04-26 08:17 -34.14326 146.78176 32213 ft 457 kts 261°
2026-04-26 08:18 -34.15453 146.70677 32209 ft 458 kts 261°
2026-04-26 08:18 -34.16585 146.63113 32211 ft 458 kts 261°
2026-04-26 08:19 -34.17722 146.55547 32207 ft 458 kts 261°
2026-04-26 08:19 -34.18859 146.47985 32204 ft 458 kts 261°
2026-04-26 08:20 -34.19976 146.40470 32204 ft 457 kts 261°
2026-04-26 08:20 -34.21085 146.32910 32198 ft 457 kts 261°
2026-04-26 08:21 -34.22200 146.25348 32204 ft 457 kts 261°
2026-04-26 08:21 -34.23313 146.17793 32199 ft 457 kts 262°
2026-04-26 08:22 -34.24403 146.10284 32201 ft 457 kts 262°
2026-04-26 08:22 -34.25463 146.02730 32201 ft 456 kts 263°
2026-04-26 08:23 -34.26403 145.95145 32201 ft 456 kts 263°
2026-04-26 08:23 -34.27306 145.87570 32198 ft 456 kts 263°
2026-04-26 08:24 -34.28210 145.80036 32200 ft 456 kts 263°
2026-04-26 08:24 -34.29131 145.72508 32198 ft 456 kts 263°
2026-04-26 08:25 -34.30050 145.64910 32198 ft 457 kts 263°
2026-04-26 08:25 -34.30965 145.57311 32199 ft 456 kts 263°
2026-04-26 08:26 -34.31885 145.49725 32199 ft 456 kts 263°
2026-04-26 08:26 -34.32790 145.42191 32196 ft 455 kts 264°
2026-04-26 08:27 -34.33690 145.34607 32196 ft 455 kts 264°
2026-04-26 08:27 -34.34591 145.27029 32196 ft 455 kts 264°
2026-04-26 08:28 -34.35487 145.19441 32195 ft 455 kts 263°
2026-04-26 08:28 -34.36369 145.11903 32191 ft 455 kts 263°
2026-04-26 08:29 -34.37246 145.04328 32196 ft 454 kts 263°
2026-04-26 08:29 -34.38120 144.96759 32196 ft 454 kts 263°
2026-04-26 08:30 -34.38986 144.89198 32196 ft 454 kts 263°
2026-04-26 08:30 -34.39848 144.81628 32191 ft 454 kts 263°
2026-04-26 08:31 -34.40708 144.74103 32192 ft 454 kts 263°
2026-04-26 08:31 -34.41572 144.66537 32191 ft 453 kts 263°
2026-04-26 08:32 -34.42422 144.58985 32184 ft 453 kts 263°
2026-04-26 08:32 -34.43266 144.51428 32184 ft 453 kts 263°
2026-04-26 08:33 -34.44100 144.43909 32184 ft 454 kts 262°
2026-04-26 08:33 -34.44940 144.36322 32184 ft 454 kts 262°
2026-04-26 08:34 -34.45777 144.28729 32186 ft 455 kts 262°
2026-04-26 08:34 -34.46608 144.21132 32185 ft 455 kts 261°
2026-04-26 08:35 -34.47428 144.13593 32184 ft 454 kts 260°
2026-04-26 08:35 -34.48248 144.05998 32184 ft 454 kts 260°
2026-04-26 08:36 -34.49062 143.98401 32185 ft 454 kts 261°
2026-04-26 08:36 -34.49873 143.90812 32185 ft 454 kts 261°
2026-04-26 08:37 -34.50675 143.83209 32185 ft 455 kts 261°
2026-04-26 08:37 -34.51475 143.75655 32185 ft 455 kts 261°
2026-04-26 08:38 -34.52268 143.68066 32184 ft 453 kts 259°
2026-04-26 08:38 -34.53055 143.60494 32185 ft 452 kts 259°
2026-04-26 08:39 -34.53840 143.52934 32185 ft 452 kts 259°
2026-04-26 08:39 -34.54491 143.46641 32184 ft 452 kts 258°
2026-04-26 08:40 -34.55394 143.37850 32185 ft 452 kts 258°
2026-04-26 08:40 -34.56162 143.30295 32185 ft 452 kts 258°
2026-04-26 08:41 -34.56797 143.24004 32179 ft 452 kts 257°
2026-04-26 08:41 -34.57558 143.16438 32185 ft 452 kts 257°
2026-04-26 08:42 -34.58438 143.07644 32185 ft 452 kts 257°
2026-04-26 08:42 -34.59188 143.00080 32177 ft 452 kts 257°
2026-04-26 08:43 -34.59807 142.93780 32185 ft 452 kts 257°
2026-04-26 08:43 -34.60549 142.86205 32185 ft 452 kts 257°
2026-04-26 08:44 -34.61405 142.77394 32181 ft 452 kts 257°
2026-04-26 08:44 -34.62012 142.71053 32184 ft 450 kts 257°
2026-04-26 08:45 -34.62735 142.63510 32185 ft 450 kts 257°
2026-04-26 08:45 -34.63448 142.56011 32185 ft 450 kts 257°
2026-04-26 08:46 -34.64013 142.48426 32183 ft 451 kts 259°
2026-04-26 08:46 -34.64395 142.40819 32185 ft 451 kts 259°
2026-04-26 08:47 -34.64764 142.33214 32188 ft 451 kts 259°
2026-04-26 08:47 -34.65178 142.25688 32185 ft 448 kts 259°
2026-04-26 08:48 -34.65608 142.18163 32190 ft 447 kts 259°
2026-04-26 08:48 -34.66029 142.10639 32181 ft 446 kts 259°
2026-04-26 08:49 -34.66435 142.03114 32178 ft 446 kts 259°
2026-04-26 08:49 -34.66827 141.95597 32191 ft 446 kts 259°
2026-04-26 08:50 -34.67216 141.88144 32191 ft 445 kts 259°
2026-04-26 08:50 -34.67615 141.80635 32174 ft 445 kts 259°
2026-04-26 08:51 -34.68195 141.69373 32195 ft 445 kts 259°
2026-04-26 08:52 -34.68568 141.61923 32196 ft 445 kts 259°
2026-04-26 08:52 -34.68939 141.54414 32198 ft 445 kts 259°
2026-04-26 08:53 -34.69315 141.46907 32200 ft 445 kts 259°
2026-04-26 08:53 -34.69687 141.39399 32201 ft 445 kts 259°
2026-04-26 08:54 -34.70042 141.31938 32196 ft 445 kts 260°
2026-04-26 08:54 -34.70392 141.24451 32204 ft 444 kts 260°
2026-04-26 08:55 -34.70742 141.16961 32205 ft 444 kts 260°
2026-04-26 08:55 -34.71094 141.09473 32198 ft 443 kts 259°
2026-04-26 08:56 -34.71434 141.02051 32212 ft 442 kts 259°
2026-04-26 08:56 -34.71769 140.94586 32212 ft 442 kts 260°
2026-04-26 08:57 -34.72097 140.87129 32199 ft 442 kts 259°
2026-04-26 08:57 -34.72421 140.79702 32214 ft 439 kts 260°
2026-04-26 08:58 -34.72744 140.72300 32211 ft 438 kts 260°
2026-04-26 08:58 -34.73063 140.64950 32220 ft 438 kts 260°
2026-04-26 08:59 -34.73374 140.57569 32220 ft 436 kts 260°
2026-04-26 08:59 -34.73674 140.50203 32220 ft 436 kts 260°
2026-04-26 09:00 -34.73965 140.42914 31425 ft 432 kts 260°
2026-04-26 09:00 -34.74111 140.39305 30719 ft 433 kts 261°
2026-04-26 09:00 -34.74256 140.35650 30098 ft 432 kts 261°
2026-04-26 09:00 -34.74397 140.32008 29483 ft 430 kts 261°
2026-04-26 09:01 -34.74539 140.28399 28907 ft 427 kts 261°
2026-04-26 09:01 -34.74683 140.24810 28330 ft 423 kts 261°
2026-04-26 09:01 -34.74825 140.21250 27757 ft 420 kts 261°
2026-04-26 09:01 -34.74961 140.17719 27186 ft 416 kts 261°
2026-04-26 09:02 -34.75092 140.14215 26645 ft 413 kts 262°
2026-04-26 09:02 -34.75222 140.10738 26119 ft 410 kts 262°
2026-04-26 09:02 -34.75350 140.07331 25607 ft 407 kts 262°
2026-04-26 09:02 -34.75478 140.03900 25101 ft 405 kts 262°
2026-04-26 09:03 -34.75606 140.00490 24622 ft 402 kts 262°
2026-04-26 09:03 -34.75734 139.97108 24153 ft 400 kts 262°
2026-04-26 09:03 -34.75861 139.93735 23666 ft 398 kts 263°
2026-04-26 09:03 -34.75984 139.90380 23160 ft 396 kts 263°
2026-04-26 09:04 -34.76105 139.87045 22678 ft 393 kts 263°
2026-04-26 09:04 -34.76224 139.83730 22211 ft 391 kts 264°
2026-04-26 09:04 -34.76339 139.80432 21759 ft 389 kts 264°
2026-04-26 09:04 -34.76452 139.77152 21303 ft 387 kts 264°
2026-04-26 09:05 -34.76563 139.73933 20853 ft 385 kts 264°
2026-04-26 09:05 -34.76677 139.70688 20397 ft 383 kts 264°
2026-04-26 09:05 -34.76791 139.67456 19846 ft 383 kts 264°
2026-04-26 09:05 -34.76904 139.64219 19305 ft 384 kts 265°
2026-04-26 09:06 -34.77014 139.60981 18825 ft 382 kts 265°
2026-04-26 09:06 -34.77120 139.57765 18218 ft 379 kts 266°
2026-04-26 09:06 -34.77224 139.54568 17624 ft 377 kts 266°
2026-04-26 09:06 -34.77326 139.51397 17131 ft 373 kts 265°
2026-04-26 09:07 -34.77426 139.48251 16581 ft 371 kts 266°
2026-04-26 09:07 -34.77525 139.45175 16111 ft 367 kts 266°
2026-04-26 09:07 -34.77626 139.42090 15622 ft 363 kts 266°
2026-04-26 09:07 -34.77723 139.39038 15176 ft 359 kts 268°
2026-04-26 09:08 -34.77803 139.36044 14723 ft 348 kts 269°
2026-04-26 09:08 -34.77872 139.33131 13876 ft 342 kts 269°
2026-04-26 09:08 -34.77934 139.30263 12925 ft 338 kts 270°
2026-04-26 09:08 -34.77994 139.27418 11993 ft 335 kts 270°
2026-04-26 09:09 -34.78055 139.24618 11370 ft 324 kts 270°
2026-04-26 09:09 -34.78116 139.21953 10943 ft 318 kts 270°
2026-04-26 09:09 -34.78179 139.19279 10505 ft 313 kts 270°
2026-04-26 09:09 -34.78238 139.16723 10258 ft 294 kts 270°
2026-04-26 09:10 -34.78290 139.14271 9924 ft 287 kts 271°
2026-04-26 09:10 -34.78338 139.11853 9734 ft 286 kts 270°
2026-04-26 09:10 -34.78354 139.11048 9616 ft 286 kts 269°
2026-04-26 09:10 -34.78406 139.08627 9238 ft 287 kts 269°
2026-04-26 09:11 -34.78458 139.06197 8850 ft 288 kts 270°
2026-04-26 09:11 -34.78509 139.03802 8440 ft 289 kts 269°
2026-04-26 09:11 -34.78560 139.01370 8219 ft 284 kts 269°
2026-04-26 09:11 -34.78612 138.98997 7679 ft 280 kts 270°
2026-04-26 09:12 -34.78663 138.96639 7059 ft 278 kts 269°
2026-04-26 09:12 -34.78713 138.94296 6504 ft 275 kts 269°
2026-04-26 09:12 -34.78759 138.92053 6383 ft 254 kts 268°
2026-04-26 09:12 -34.78802 138.89988 6310 ft 235 kts 268°
2026-04-26 09:13 -34.78846 138.87961 6221 ft 245 kts 268°
2026-04-26 09:13 -34.78887 138.85896 5920 ft 247 kts 268°
2026-04-26 09:13 -34.78925 138.83841 5604 ft 238 kts 268°
2026-04-26 09:13 -34.78960 138.81878 5314 ft 228 kts 267°
2026-04-26 09:14 -34.78995 138.79996 5038 ft 217 kts 267°
2026-04-26 09:14 -34.79028 138.78188 4769 ft 212 kts 267°
2026-04-26 09:14 -34.79231 138.76429 4503 ft 209 kts 250°
2026-04-26 09:14 -34.79918 138.74911 4273 ft 204 kts 231°
2026-04-26 09:15 -34.80802 138.73563 4018 ft 204 kts 228°
2026-04-26 09:15 -34.81712 138.72243 3764 ft 203 kts 228°
2026-04-26 09:15 -34.82605 138.70951 3494 ft 201 kts 228°
2026-04-26 09:15 -34.83505 138.69649 3229 ft 200 kts 227°
2026-04-26 09:16 -34.84400 138.68353 2955 ft 199 kts 226°
2026-04-26 09:16 -34.85287 138.67067 2688 ft 197 kts 226°
2026-04-26 09:16 -34.86166 138.65793 2422 ft 196 kts 226°
2026-04-26 09:16 -34.87043 138.64522 2160 ft 196 kts 227°
2026-04-26 09:17 -34.87919 138.63251 1889 ft 196 kts 227°
2026-04-26 09:17 -34.88775 138.62008 1658 ft 192 kts 227°
2026-04-26 09:17 -34.89608 138.60798 1384 ft 181 kts 227°
2026-04-26 09:17 -34.90382 138.59672 1145 ft 165 kts 226°
2026-04-26 09:18 -34.91068 138.58676 930 ft 145 kts 227°
2026-04-26 09:18 -34.91691 138.57784 679 ft 134 kts 228°
2026-04-26 09:18 -34.92312 138.56830 550 ft 143 kts 226°
2026-04-26 09:18 -34.92953 138.55958 404 ft 136 kts 225°
2026-04-26 09:19 -34.93554 138.55064 213 ft 134 kts 229°
2026-04-26 09:19 -34.94118 138.54210 52 ft 130 kts 225°
2026-04-26 09:19 -34.94668 138.53466 20 ft 83 kts 225°
2026-04-26 09:19 -34.94934 138.53083 20 ft 49 kts 229°
2026-04-26 09:20 -34.95086 138.52861 19 ft 29 kts 231°
2026-04-26 09:20 -34.95211 138.52678 15 ft 24 kts 230°
2026-04-26 09:20 -34.95236 138.52557 17 ft 16 kts 300°
2026-04-26 09:20 -34.95154 138.52474 16 ft 0 kts 329°
2026-04-26 09:21 -34.95149 138.52470 16 ft 2 kts 329°
2026-04-26 09:21 -34.95128 138.52458 17 ft 4 kts 337°
2026-04-26 09:22 -34.95097 138.52447 17 ft 6 kts 348°
2026-04-26 09:22 -34.95051 138.52448 18 ft 8 kts 12°
2026-04-26 09:22 -34.94993 138.52484 20 ft 11 kts 38°
2026-04-26 09:22 -34.94922 138.52552 18 ft 14 kts 38°
2026-04-26 09:23 -34.94842 138.52628 21 ft 15 kts 38°
2026-04-26 09:23 -34.94753 138.52712 20 ft 18 kts 38°
2026-04-26 09:23 -34.94646 138.52812 24 ft 21 kts 38°
2026-04-26 09:23 -34.94525 138.52927 22 ft 24 kts 38°
2026-04-26 09:24 -34.94444 138.53076 21 ft 22 kts 104°
2026-04-26 09:24 -34.94519 138.53240 20 ft 22 kts 98°
2026-04-26 09:24 -34.94449 138.53423 15 ft 27 kts 58°
2026-04-26 09:24 -34.94348 138.53572 16 ft 24 kts 50°
2026-04-26 09:25 -34.94269 138.53671 17 ft 7 kts 12°
2026-04-26 09:25 -34.94226 138.53647 17 ft 9 kts 328°
2026-04-26 09:25 -34.94176 138.53661 19 ft 8 kts 46°
2026-04-26 09:25 -34.94128 138.53675 21 ft 7 kts 323°
2026-04-26 09:26 -34.94095 138.53639 23 ft 0 kts 321°